TITAN 3C TRANSTAGE DEB, 2050

Orbit data source: Space-Track

TITAN 3C TRANSTAGE DEB, 2050 is space debris in LEO originally from a launch on Fri, 15 Oct 1965 UTC launched from the Air Force Eastern Test Range (AFETR). Debris objects in space refer to the collection of defunct objects orbiting the Earth. Examples of debris include non-operational satellites, rocket bodies, and fragments generated from explosions, collisions, or faulty payload assembly.

Loading next visibility...
Identifier
2050, 1965-082JL
Orbit
LEO
Country
Flag of USUS
Related business
Manufacturer
Unknown
Mission
Spacecraft
Bus & Motor
Unknown
Mass
Unknown
Launch date (UTC)
1965-10-15 (61 years ago)
Launch vehicle
Unknown
Launch site
Air Force Eastern Test Range (AFETR)
Object type
Payload
Rocket body
Debris
Shape & HBR
Unknown shape, 0.2 m
Radar Cross Section
Medium (>0.1 m² and <1 m²)

Expand to show TLE details & history
Last TLE update: 14 hours ago

TLE from 14 hours ago
0 TITAN 3C TRANSTAGE DEB
1 02050U 65082JL  26202.63073357  .00000667  00000-0  14854-3 0  9998
2 02050  32.2654  38.8923 0082221  23.2420 337.1913 14.51842058163647
Epoch: 2026-07-21T15:08Z
TLE epoch observation values (Epoch: 2026-07-21T15:08:15.380Z)
Latitude
-0.00001°
Longitude
-127.56946°
Altitude
664.599 km
Speed
7.556 km/s
True Right ascension
02h 35m 34s
True Declination
0° 00' 00"
Sunlit
Object was in daylight at epoch
Visualization orbit readout
Latitude
Unknown
Longitude
Unknown
Altitude
Unknown
Speed
Unknown
Apparent Right ascension
Unknown
Apparent Declination
Unknown
Sunlit
N/A
Visualization observer readout
Local Sidereal Time
18:08:21
Azimuth
Unknown
Elevation
Unknown
Doppler factor
Unknown
Orbital elements
Apogee altitude
781.585 km
Perigee altitude
664.809 km
Semi-major axis
7,101.334 km
Eccentricity
0.00822
Inclination
32.2654°
RAAN
38.8923°
Arg. of periapsis
23.242°
True anomaly
336.82257°
Mean anomaly
337.1913°
Eccentric anomaly
337.00728°
Mean motion
3.62688 °/min
Orbital period
99.26 mins
BSTAR
0.00014854

Documentation

Showing up to 5 results
|